Regional Weather Roundup
Issued by NWS

Home | Current Version | Previous Version | Text Only | Print | Product List | Glossary On
Versions: 1 2 3 4 5 6 7 8 9 10 11 12 13 14 15 16 17 18 19 20 21 22 23 24 25 26 27 28 29 30 31 32 33 34 35 36 37 38 39 40 41 42 43 44 45 46 47 48 49 50
274
ASUS44 KEWX 272303
RWRTX
SOUTH TEXAS REGIONAL WEATHER ROUNDUP
NATIONAL WEATHER SERVICE AUSTIN/SAN ANTONIO TX
600 PM CDT THU APR 27 2017

NOTE: "FAIR" INDICATED FEW OR NO CLOUDS BELOW 12,000 FEET WITH NO
SIGNIFICANT WEATHER AND/OR OBSTRUCTIONS TO VISIBILITY.

* - THESE STATIONS ARE NOT NWS OR FAA STATIONS...AND ARE NOT SUBJECT
    TO NWS AND FAA QUALITY CONTROL.

TXZ171-172-183>190-280000-
TEXAS HILL COUNTRY AND EDWARDS PLATEAU

CITY           SKY/WX    TMP DP  RH WIND       PRES   REMARKS
JUNCTION       CLOUDY    83  50  31 S17G31    29.59S
*LLANO         SUNNY     88  45  22 S12G20    29.61F
BURNET         SUNNY     82  44  26 S15G25    29.62F
*HORSESHOE BAY SUNNY     84  44  24 S15G21    29.60F
*KERRVILLE     SUNNY     82  50  33 S15G23    29.65F
*FREDERICKSBRG SUNNY     81  44  27 S15       29.64F
*ROCKSPRINGS   CLOUDY    77  54  44 S12G24    29.66F
*BOERNE STAGE  SUNNY     81  48  32 S14G20    29.67S
*CASTROVILLE   SUNNY     88  52  28 SE8G16    29.64F
HONDO          SUNNY     87  54  32 SE12      29.62F
*UVALDE        SUNNY     86  56  35 SE8       29.61F
DEL RIO        MOSUNNY   86  53  32 SE17G26   29.55F
LAUGHLIN AFB   PTSUNNY   86  55  34 S17       29.55F
CARRIZO SPRGS  SUNNY     90  61  37 S10G20    29.57F
*EAGLE PASS    NOT AVBL
$$

TXZ173-191>194-202-209-217>225-228-280000-
CENTRAL AND SOUTH CENTRAL TEXAS

CITY           SKY/WX    TMP DP  RH WIND       PRES   REMARKS
GEORGETOWN     NOT AVBL
AUSTIN/BERGSTM PTSUNNY   84  51  31 SE14      29.63F
AUSTIN/MABRY   SUNNY     83  50  31 S8        29.64F
*AUSTIN/EXEC   SUNNY     81  52  36 S13       29.64F
*LAGO VISTA    SUNNY     81  47  30 S12G21    29.64F
SAN MARCOS     SUNNY     82  52  34 S12       29.66F
NEW BRAUNFELS  SUNNY     85  54  34 S13       29.63F
RANDOLPH AFB   SUNNY     86  52  30 S15       29.63F
PT SAN ANTONIO SUNNY     87  57  36 S13       29.61F
SAN ANTONIO    PTSUNNY   85  53  33 SE15      29.63F
STINSON FIELD  SUNNY     88  55  32 S14       29.61F
*LA GRANGE     MOSUNNY   81  59  46 SE6       29.64F
*GIDDINGS      MOSUNNY   80  52  37 SE9       29.67F
*GONZALES      MOSUNNY   83  59  42 MISG      29.64F
$$

TXZ163>164-176>182-195>201-210>213-226-227-235-280000-
SOUTHEAST TEXAS

CITY           SKY/WX    TMP DP  RH WIND       PRES   REMARKS
COLLEGE STN    MOSUNNY   80  52  37 SE15      29.67F
*BRYAN         MOSUNNY   79  52  39 S10       29.68F
*CALDWELL      NOT AVBL
*CROCKETT      MOSUNNY   77  54  44 S8        29.71F
*BRENHAM       MOSUNNY   81  55  41 SE10      29.68F
HUNTSVILLE     CLOUDY    80  49  33 S8        29.69F
CONROE         MOSUNNY   79  49  34 S10       29.70F
HOUSTON BUSH   MOSUNNY   79  54  41 SE12      29.69F
HOUSTON HOBBY  MOSUNNY   77  58  51 E9        29.69F
*HOUSTON SW AP SUNNY     78  59  51 SE6       29.70F
PEARLAND       SUNNY     79  59  50 E8        29.71F
HOUSTON HOOKS  SUNNY     79  53  40 SE8       29.68F
ELLINGTON FLD  MOSUNNY   75  61  60 SE9       29.72F
SUGAR LAND     SUNNY     82  61  48 S12       29.68F
*HOUSTON EXEC  SUNNY     81  59  47 S9        29.69F
*CLEVELAND MUN SUNNY     80  58  47 SE3       29.71F HAZE
*WHARTON       SUNNY     82  58  45 SE8       29.68F
*COLUMBUS      FAIR      82  58  43 SE6       29.67F
*EAGLE LAKE    PTCLDY    84  62  47 S12       29.67S
$$

TXZ214>216-236>238-280000-
THE UPPER TEXAS COAST

CITY           SKY/WX    TMP DP  RH WIND       PRES   REMARKS
*ORANGE        SUNNY     80  57  45 E5        29.74S
PORT ARTHUR    SUNNY     81  55  40 E7        29.71F
GALVESTON      SUNNY     75  64  68 E10       29.72F
ANGLETON       SUNNY     78  64  61 VRB7      29.70F
*BAY CITY      SUNNY     79  63  58 SE9       29.68F
PALACIOS       SUNNY     77  64  64 SE15      29.67F
$$

TXZ229>234-239>247-280000-
TEXAS COASTAL BEND AND RIO GRANDE PLAINS

CITY           SKY/WX    TMP DP  RH WIND       PRES   REMARKS
VICTORIA       SUNNY     79  65  62 E14       29.66F
*BEEVILLE      SUNNY     84  67  57 SE13      29.64F
ROCKPORT       MOSUNNY   77  65  66 SE14      29.67F
*PORT ARANSAS  CLOUDY    75  65  70 E13       29.67S
*PORT LAVACA   SUNNY     76  68  76 SE16      29.66F
*INGLESIDE     PTSUNNY   78  66  66 E15       29.66F
CORPUS CHRISTI PTSUNNY   79  67  66 SE14      29.66F
CORPUS NAS     CLOUDY    77  67  71 SE16      29.66F
*ROBSTOWN      MOSUNNY   82  67  60 SE14G20   29.66S
ALICE          SUNNY     84  67  56 SE15      29.63F
KINGSVILLE NAS MOSUNNY   81  70  69 SE17G24   29.64F
COTULLA        SUNNY     93  57  29 S14G25    29.58F HX  91
*FAITH RANCH   SUNNY     93  61  33 SE16G23   29.57F HX  93
LAREDO         SUNNY     92  65  40 SE20      29.58F HX  94
$$

TXZ248>255-280000-
DEEP SOUTH TEXAS

CITY           SKY/WX    TMP DP  RH WIND       PRES   REMARKS
BROWNSVILLE    CLOUDY    83  73  72 E13G22    29.63F
PORT ISABEL    CLOUDY    80  73  79 E16       29.64F
*SOUTH PADRE   NOT AVBL
HARLINGEN      CLOUDY    81  73  76 E14       29.62F
*HEBBRONVILLE  SUNNY     89  62  40 S12G17    29.63F
MCALLEN        MOSUNNY   92  70  48 SE16G23   29.61F HX  97
*WESLACO       PTSUNNY   87  70  56 SE13      29.61S HX  92
FALFURRIAS     SUNNY     87  67  51 E16       29.62S HX  90
EDINBURG       SUNNY     89  69  52 E16       29.61F HX  93
*ZAPATA        MOSUNNY   94  62  33 SE8G20    29.57F HX  95
$$

TXZ213>215-236>238-242>244-246-247-251-254-255-280000-
CMAN STATIONS

STATION/POSITION TIME  TEMP    WIND        PRES    WAVE
                       AIR SEA DIR/SP/G            HT/PER
                 (UTC) (F)     (DEG/KT/KT) (MB)    (FT/S)
SABINE PASS      2230   74 78  100/ 10/ 12 1007.7
SEA RIM ST PARK  2200   72     100/ 12/ 14 1006.8
NORTH JETTY/GLS  2230      75  100/ 14/ 15 1005.8
EAGLE POINT      2230   71 75  120/ 10/ 12 1006.2
MORGANS POINT    2230   74 76  140/  6/ 10 1006.0
MISSION/ARANSAS  2200   74                 1005.0
PORT O`CONNOR    2230   73     120/ 14/ 17 1004.8
PORT ARANSAS     2200   72 77   80/ 14/ 15 1005.3
MALAQUITE BEACH  2230   74 78   70/ 14/ 16 1005.0
BAFFIN BAY       2230   74 79   40/ 12/ 15 1004.6
PORT ISABEL      2230   82 80  210/  2/  5 1003.7
$$

GMZ080-GMZ150>470-280000-
OFFSHORE BUOY REPORTS

STATION/POSITION TIME  TEMP    WIND        PRES    WAVE
                       AIR SEA DIR/SP/G            HT/PER
                 (UTC) (F)     (DEG/KT/KT) (MB)    (FT/S)
20 E GALVESTON   2150   71 75  100/ 16/ 19 1005.8    3/ 7
90 E PT ARANSAS  2150   74 76   70/ 14/ 16 1005.6    4/ 6
35 NE PT MANSFLD 2150   75     110/ 12/ 14 1004.1    6/ 7
200 E PT ISABEL  2150   79 79  120/ 12/ 14 1004.9    6/ 7
$$




USA.gov is the U.S. government's official web portal to all federal, state and local government web resources and services.